Location: Newark
(14.1000°N, 87.2167°W)
Time: 10:10:21
(UTC+00:00)

Hubble Space Telescope - Pass Details

Date: 22 July 2019
Orbit: 536 x 540 km, 28.5° (Epoch: 20 August)

Event Time Altitude Azimuth Distance (km) Brightness Sun altitude
Exits shadow 09:31:05 19° 127° (SE) 1,298 2.9 -26.8°
Drops below altitude 10° 09:33:08 10° 99° (E) 1,777 4.0 -26.4°
Sets 09:35:47 0° 83° (E) 2,667 5.4 -25.8°
